Regional Weather Roundup
Issued by NWS

Home | Current Version | Previous Version | Graphics & Text | Print | Product List | Glossary On
Versions: 1 2 3 4 5 6 7 8 9 10 11 12 13 14 15 16 17 18 19 20 21 22 23 24 25 26 27
000
ASUS45 KSLC 182010
RWRUT

UTAH REGIONAL WEATHER ROUNDUP
NATIONAL WEATHER SERVICE SALT LAKE CITY UT
200 PM MDT MON SEP 18 2017

UTZ001>011-023>025-182100-

NORTHERN UTAH

CITY           SKY/WX    TMP DP  RH WIND       PRES   REMARKS
BRIGHAM CITY   PTSUNNY   78  32  18 SW14      29.85F
DUGWAY         MOSUNNY   81  31  16 S15G24    29.86F
HILL AFB       PTSUNNY   76  36  23 S15       29.88F
LOGAN          PTSUNNY  N/A N/A N/A S8        29.87F
OGDEN          MOSUNNY   78  37  22 S16G25    29.86F
SALT LAKE CITY MOSUNNY   82  37  20 S21G32    29.85F
TOOELE VALLEY  SUNNY     79  36  21 S17G28    29.86F
WENDOVER       MOSUNNY   79  35  20 CALM      29.82F
HEBER CITY     MOSUNNY   73  32  21 SW17G25   29.96F
WEST JORDAN    MOSUNNY   79  50  35 SE22G30   29.89F

$$

UTZ011>015-024>027-182100-

CENTRAL/NORTHEAST UTAH

CITY           SKY/WX    TMP DP  RH WIND       PRES   REMARKS
PROVO AIRPORT  SUNNY     79  39  23 SW12      29.92F
MOAB/CANYONLAN SUNNY     81  39  22 NW13      29.96F
DELTA          SUNNY     79  28  15 S24G33    29.94F
PRICE          SUNNY     70  41  34 S10       30.03F
ROOSEVELT      SUNNY     72  39  30 SE7       30.00F
VERNAL         SUNNY     72  43  35 S7        29.99F

$$

UTZ013>016-019>022-027-182100-

SOUTHERN UTAH

CITY           SKY/WX    TMP DP  RH WIND       PRES   REMARKS
BRYCE CANYON   SUNNY     66  31  27 S12       30.17F
CEDAR CITY     SUNNY     75  33  21 SW17G31   30.03F
MILFORD        SUNNY     78  36  21 S20       29.97F
ST GEORGE      CLEAR     84  39  20 W5        29.92F
HANKSVILLE     SUNNY     79  39  24 CALM      29.98F
BLANDING         N/A     73  30  20 S13G22    30.18F

$$

REGIONAL REPORTS     COLORADO/ARIZONA

CITY           SKY/WX    TMP DP  RH WIND       PRES   REMARKS
CRAIG, CO      MOSUNNY   74  26  16 SW13G23   30.03F
GRAND JUNCTION SUNNY     79  37  22 VRB3      29.98F
RIFLE, CO      SUNNY     78  32  18 W15       30.02F
MONTROSE, CO   SUNNY     75  38  26 E6        30.06F
CORTEZ, CO     SUNNY     75  29  18 SW12      30.12F
PAGE, AZ       SUNNY     82  30  15 N9        29.99F
GRAND CANYON   SUNNY     73  27  18 SW14G23   30.18F
KINGMAN, AZ    SUNNY     85  36  17 SW20G30   30.00F
FLAGSTAFF, AZ  SUNNY     69  25  19 SW21G31   30.23F

$$

REGIONAL REPORTS    NEVADA/IDAHO/WYOMING

CITY           SKY/WX    TMP DP  RH WIND       PRES   REMARKS
LAS VEGAS, NV  MOSUNNY   91  40  16 SW15G21   29.86F
ELY, NY        MOSUNNY   72  35  25 S20G26    30.00F
ELKO, NV       PTSUNNY   79  17  10 SW25G41   29.85F
POCATELLO, ID  MOSUNNY   72  35  25 S16       29.82F
BURLEY, ID     PTSUNNY   70  36  28 NW7       29.79F
FORT BRIDGER,  CLOUDY    72  27  18 SW21G35   30.04F
EVANSTON, WY   PTSUNNY   71  30  21 SW30G41   30.01F
ROCK SPRINGS,  CLOUDY    67  28  23 SW14      30.00F
KEMMERER, WY     N/A     68  27  21 SW29G41   30.02F

$$




USA.gov is the U.S. government's official web portal to all federal, state and local government web resources and services.